Погода в Александровке

Украина / Кировоградская область     48°43′35″N   33°18′08″E
темп.,
°C
ветер,
м/с
пор.,
м/с
влажн.,
%
обл.,
%
осадки,
мм/ч
давл.,
гПа
погр.,
м
14 мая, пт
пт1400:00+12юв356888 0.0 101174
03:00+12вюв3675100 0.0 1010114
06:00+11вюв358593 0.0 100990
09:00+17ююв467317 0.0 1008571
12:00+21ююз6850100 0.0 10081138
15:00+22ююз7848100 0.0 10081561
18:00+21ю68576 0.0 10081519
21:00+15ююз4107581 0.0 1009199
15 мая, сб
сб1500:00+12ююз498694 0.0 1010178
03:00+11ю4108816 0.0 1011203
06:00+11ю499088 0.0 1011199
09:00+18ююз58685 0.0 1012588
12:00+21юз57516 0.0 10121817
15:00+23юз574354 0.0 10112443
18:00+21юз3653100 0.0 10111076
21:00+18юз1160100 0.0 101211
16 мая, вс
вс1600:00+15юз11700 0.0 101211
03:00+13юз11760 0.0 101310
06:00+13с11774 0.0 101310
09:00+19ссв225998 0.0 1013398
12:00+23в3347100 0.0 10121515
15:00+24в444347 0.0 10112022
18:00+23всв4552100 0.0 1009563
21:00+18св4666100 0.0 100887
17 мая, пн
пн1700:00+16св3977100 0.6 1008177
03:00+15сз1396100 5.7 100671
06:00+16ссз4797100 3.3 1005211
09:00+18ссз6988100 3.8 1004457
12:00+21с3371100 0.0 1005990
15:00+21з4371100 1.7 1004722
18:00+19сз4579100 1.0 1005527
21:00+16зсз2294100 1.1 100630
18 мая, вт
вт1800:00+15зсз3695100 0.1 1007146
03:00+13сз2496100 0.1 100875
06:00+14зсз2391100 0.0 100894
09:00+17юз117798 0.3 1009412
12:00+21ююз346034 0.3 10091389
15:00+24юз4646100 0.3 10082692
18:00+17с2480100 0.6 100895
21:00+16ю41191100 3.4 1008336